Regional Weather Roundup
Issued by NWS

Home | Current Version | Previous Version | Graphics & Text | Print | Product List | Glossary On
Versions: 1 2 3 4 5 6 7 8 9 10 11 12 13 14 15 16 17 18 19 20 21 22 23 24 25 26 27 28 29 30 31 32 33 34 35 36 37 38 39 40 41 42 43 44 45 46 47 48 49 50
000
ASUS43 KDMX 010308
RWRIA

WEATHER ROUNDUP FOR IOWA
NATIONAL WEATHER SERVICE DES MOINES IA
1000 PM CDT SAT APR 30 2016

NOTE: "FAIR" INDICATES FEW OR NO CLOUDS BELOW 12,000 FEET WITH NO
SIGNIFICANT WEATHER AND/OR OBSTRUCTIONS TO VISIBILITY.

* - THESE STATIONS ARE NOT NWS STATIONS...THUS NOT UNDER NWS
QUALITY CONTROL.  THEY ALSO DO NOT REPORT WEATHER SUCH
AS PRECIPITATION OR FOG.

IAZ001>003-012>014-020>022-031>034-043>046-010400-
   NORTHWEST IOWA

CITY           SKY/WX    TMP DP  RH WIND       PRES   REMARKS
CARROLL *      CLOUDY    45  45 100 E20G26    29.92R FOG
CHEROKEE *     CLOUDY    43  43 100 NE17G23   29.98R FOG
DENISON *      CLOUDY    45  45 100 E16G29    29.88R FOG
LE MARS *      CLOUDY    45  43  93 NE20G28   29.99R FOG
ORANGE CITY *  CLOUDY    43  41  93 E18G26    29.99R FOG
SHELDON *      MIX PCPN  43  41  93 NE25G36   29.99R
SIOUX CITY     LGT RAIN  46  42  86 NE22G30   29.93R
SPENCER        LGT RAIN  43  39  86 NE28G36   30.00R
STORM LAKE *   CLOUDY    43  43 100 E24G32    29.96R FOG
$$

IAZ055>058-069>071-079>083-090>094-010400-
   SOUTHWEST IOWA

CITY           SKY/WX    TMP DP  RH WIND       PRES   REMARKS
ATLANTIC *     CLOUDY    48  46  93 E13G21    29.86R
AUDUBON *        N/A     46  43  87 NE15      29.90R FOG
CLARINDA *       N/A    N/A N/A N/A MISG        N/A
COUNCIL BLFS *   N/A     48  48 100 E13       29.85R FOG
CRESTON *      CLOUDY    48  48 100 E15       29.87R FOG
HARLAN  *      CLOUDY    46  46 100 E16G24    29.89R
LAMONI         CLOUDY    49  49 100 NE10      29.85R FOG
RED OAK *      CLOUDY    50  50 100 E15       29.84R
SHENANDOAH *   CLOUDY    52  52 100 E6        29.84R
$$

IAZ047>049-059>061-072>074-084-010400-
   CENTRAL IOWA

CITY           SKY/WX    TMP DP  RH WIND       PRES   REMARKS
AMES           CLOUDY    45  43  93 E14G25    29.92R FOG
ANKENY *       CLOUDY    46  46 100 E9G18     29.90R
BOONE *        CLOUDY    45  43  93 E22G30    29.91R FOG
CHARITON *     CLOUDY    48  46  93 E13       29.87R FOG
DES MOINES     DRIZZLE   48  44  86 E9        29.89R FOG
GRINNELL*      CLOUDY    45  43  93 NE20      29.90R FOG
KNOXVILLE *    CLOUDY    46  45  93 E13G20    29.87R FOG
MARSHALLTOWN   CLOUDY    44  41  89 E22G31    29.91R
NEWTON *       CLOUDY    45  45 100 E18       29.89R FOG
PELLA *        CLOUDY    46  45  93 E12G22    29.90R FOG
$$

IAZ004>006-015-016-023>025-035-036-010400-
   NORTH CENTRAL IOWA

CITY           SKY/WX    TMP DP  RH WIND       PRES   REMARKS
ALGONA *       CLOUDY    45  41  87 NE21G31   30.00R
CLARION *      CLOUDY    43  43 100 NE22      29.96R FOG
ESTHERVILLE    LGT RAIN  42  41  96 NE22      30.02R
FORT DODGE *   CLOUDY    45  39  81 NE17G23   29.95R
MASON CITY     CLOUDY    43  39  86 NE18G29   30.01R
FOREST CITY *  CLOUDY    41  39  93 NE14G21   30.01R
WEBSTER CITY * CLOUDY    45  45 100 NE18G28   29.93R FOG
IOWA FALLS *   LGT RAIN  45  43  93 NE16G25   29.95R
$$

IAZ007>011-017>019-026>030-037>042-050>054-066-010400-
   NORTHEAST IOWA

CITY           SKY/WX    TMP DP  RH WIND       PRES   REMARKS
CEDAR RAPIDS   CLOUDY    45  44  97 NE16G28   29.92R
CHARLES CITY * CLOUDY    45  45 100 NE18      29.99R
CLINTON *      CLOUDY    45  43  93 E20       29.91S
DECORAH *      CLOUDY    43  43 100 E15       30.00R
DUBUQUE        CLOUDY    43  41  93 NE16      29.95R FOG
MONTICELLO *   CLOUDY    45  43  93 E14       29.95R FOG
OELWEIN *      CLOUDY    43  43 100 NE18G24   29.96R FOG
WATERLOO       CLOUDY    44  40  85 E20       29.96R
$$

IAZ064-065-067-068-078-010400-
   EAST CENTRAL IOWA

CITY           SKY/WX    TMP DP  RH WIND       PRES   REMARKS
DAVENPORT      CLOUDY    45  43  93 E15       29.91R
IOWA CITY      CLOUDY    45  43  93 E14G22    29.91S FOG
MT. PLEASANT * CLOUDY    48  48 100 NE9       29.88R
MUSCATINE *    CLOUDY    48  45  87 NE12G18   29.90R
QUAD CITIES    CLOUDY    47  43  86 NE17      29.88F
$$

IAZ062-063-075>077-085>089-095>099-010400-
   SOUTHEAST IOWA

CITY           SKY/WX    TMP DP  RH WIND       PRES   REMARKS
BURLINGTON     CLOUDY    48  48 100 NE13      29.84R FOG
FAIRFIELD *    CLOUDY    46  46 100 E13G18    29.87S FOG
FORT MADISON * CLOUDY    48  48 100 NE12G17   29.86R FOG
KEOKUK *       CLOUDY    52  52 100 NE9       29.85R FOG
OSKALOOSA *    CLOUDY    45  45 100 E16       29.88S FOG
OTTUMWA        CLOUDY    46  45  96 NE14      29.87R
WASHINGTON *   CLOUDY    46  46 100 NE16      29.90R FOG
$$

ABBREVIATIONS USED IN REMARKS
   TC - TEMPERATURES IN CELSIUS
  WCI - WIND CHILL INDEX
   HX - HEAT INDEX
  VSB - VISIBILITY
$$





USA.gov is the U.S. government's official web portal to all federal, state and local government web resources and services.